This demonstration page uses our WeatherBlox Daily Observations layout. Learn more.

Left ArrowRight Arrow

Hourly Observations for October 14, 2021

Temp ( °F °C ) Dew Point ( °F °C ) Humidity (%) Winds ( mph kmh ) Pressure ( in mb ) Visibility ( mi km ) Precip ( " mm )
12:53 am 00:53 Clear 59 15 37 2.8 44 44 NNE 3 6 29.74 1007 10 16 N/A
1:53 am 01:53 Clear 53 11.7 33 0.6 47 47 NE 6 9 29.75 1008 10 16 N/A
2:53 am 02:53 Clear 53 11.7 34 1.1 48 48 N N/A 29.76 1008 10 16 N/A
3:53 am 03:53 Clear 50 10 33 0.6 52 52 N 5 7 29.77 1008 10 16 N/A
4:53 am 04:53 Clear 49 9.4 32 undefined 52 52 N 5 7 29.77 1008 10 16 N/A
5:53 am 05:53 Clear 49 9.4 33 0.6 55 55 N 6 9 29.78 1008 10 16 N/A
6:53 am 06:53 Clear 48 8.9 33 0.6 56 56 N 3 6 29.80 1009 10 16 N/A
7:53 am 07:53 Clear 47 8.3 33 0.6 59 59 NNW 5 7 29.83 1010 10 16 N/A
8:53 am 08:53 Sunny 53 11.7 37 2.8 55 55 N N/A 29.85 1011 10 16 N/A
9:53 am 09:53 Sunny 60 15.6 42 5.6 52 52 N N/A 29.86 1011 10 16 N/A
10:53 am 10:53 Sunny 71 21.7 50 10 47 47 W 10 17 29.85 1011 10 16 N/A
11:53 am 11:53 Sunny 79 26.1 43 6.1 28 28 W 15 24 29.83 1010 10 16 N/A
12:53 pm 12:53 Sunny 82 27.8 39 3.9 22 22 W 18 30 29.80 1009 10 16 N/A
1:53 pm 13:53 Sunny 84 28.9 32 undefined 15 15 WSW 24 39 29.78 1009 10 16 N/A
2:53 pm 14:53 Sunny 85 29.4 30 -1.1 14 14 W 25 41 29.75 1007 10 16 N/A
3:53 pm 15:53 Sunny 85 29.4 32 undefined 15 15 W 17 28 29.74 1007 10 16 N/A
4:53 pm 16:53 Sunny 85 29.4 28 -2.2 13 13 W 21 33 29.74 1007 10 16 N/A
5:53 pm 17:53 Sunny 84 28.9 26 -3.3 12 12 W 21 33 29.74 1007 10 16 N/A
6:53 pm 18:53 Sunny 81 27.2 24 -4.4 12 12 W 17 28 29.77 1008 10 16 N/A
7:53 pm 19:53 Clear 77 25 26 -3.3 15 15 WNW 15 24 29.78 1009 10 16 N/A
8:53 pm 20:53 Clear 71 21.7 26 -3.3 19 19 NNW 13 20 29.80 1009 10 16 N/A
9:53 pm 21:53 Clear 71 21.7 28 -2.2 20 20 WNW 12 19 29.81 1010 10 16 N/A
10:53 pm 22:53 Clear 69 20.6 26 -3.3 20 20 NW 10 17 29.82 1010 10 16 N/A
11:53 pm 23:53 Clear 71 21.7 25 -3.9 18 18 WNW 16 26 29.80 1009 10 16 N/A

Powered by AerisWeather